Location: Sagn�
(15.2046°N, 12.7898°W)
Time: 14:11:47
(UTC+00:00)

CZ-2C R/B - Pass Details

Date: 08 May 2021
Orbit: 785 x 869 km, 98.2° (Epoch: 14 June)

Event Time Altitude Azimuth Distance (km) Brightness Sun altitude
Rises 19:25:52 0° 12° (NNE) 3,371 5.9 -4.3°
Reaches altitude 10° 19:28:12 10° 12° (NNE) 2,449 5.2 -4.8°
Maximum altitude 19:33:39 89° 95° (E) 854 2.8 -6.1°
Drops below altitude 10° 19:39:13 10° 192° (SSW) 2,492 5.1 -7.3°
Sets 19:41:36 0° 192° (SSW) 3,435 5.8 -7.9°
